Regional Weather Roundup
Issued by NWS

Home | Current Version | Previous Version | Text Only | Print | Product List | Glossary Off
Versions: 1 2 3 4 5 6 7 8 9 10 11 12 13 14 15 16 17 18 19 20 21 22 23 24 25 26 27 28 29 30 31 32 33 34 35 36 37 38 39 40 41 42 43 44 45 46 47 48 49 50

000
ASUS44 KMEG 300410
RWRTN
TENNESSEE HOURLY STATE WEATHER ROUNDUP
NATIONAL WEATHER SERVICE MEMPHIS TN
1100 PM CDT TUE JUL 29 2014

TNZ002-004-019-021-049-052-054-088>092-300500-
WEST TENNESSEE

CITY           SKY/WX    TMP DP  RH WIND       PRES   REMARKS
MEMPHIS INTL   CLEAR     68  55  63 CALM      30.11R
NWS MEMPHIS      N/A     63 N/A N/A MISG        N/A
JACKSON        CLEAR     59  56  89 CALM      30.10S
DYERSBURG      CLEAR     63  52  67 CALM      30.12R
UNION CITY     CLEAR     61  59  94 CALM      30.10R
PARIS          CLEAR     55  52  90 CALM      30.11S
LEXINGTON      CLEAR     61  57  88 CALM      30.09S
SAVANNAH       CLEAR     57  57 100 CALM      30.11R
$$

TNZ008-025-027-028-033-062-065-066-300500-
NORTH MIDDLE TENNESSEE

CITY           SKY/WX    TMP DP  RH WIND       PRES   REMARKS
NASHVILLE      CLEAR     66  55  67 CALM      30.10R
DICKSON        CLEAR     61  55  82 CALM      30.10S
PORTLAND       CLEAR     61  55  82 CALM      30.10R
CLARKSVILLE    CLEAR     61  54  77 CALM      30.10R
LEBANON        CLEAR     60  55  83 CALM      30.08S
SMYRNA         CLEAR     61  57  86 CALM      30.10S
MURFREESBORO   CLEAR     65  57  75 CALM      30.09S
COOKEVILLE     CLEAR     57  57 100 CALM      30.10S
LIVINGSTON       N/A     59  53  80 CALM      30.11S
CROSSVILLE     CLEAR     57  53  86 CALM      30.13S
$$

TNZ061-075-076-078-094-096-097-300500-
SOUTH MIDDLE TENNESSEE

CITY           SKY/WX    TMP DP  RH WIND       PRES   REMARKS
LEWISBURG      CLEAR     60  56  87 CALM      30.09S
FAYETTEVILLE   CLEAR     63  54  72 CALM      30.09F
TULLAHOMA      CLEAR     59  55  88 CALM      30.11S
WINCHESTER     CLEAR     59  55  88 CALM      30.10S
MCMINNVILLE    CLEAR     59  59 100 CALM      30.10S
COLUMBIA       CLEAR     61  59  94 CALM      30.08F
SHELBYVILLE    CLEAR     59  57  94 CALM      30.10F
$$

TNZ017-018-042-046-047-300500-
NORTHEAST TENNESSEE

CITY           SKY/WX    TMP DP  RH WIND       PRES   REMARKS
TRI CITIES     PTCLDY    57  51  80 CALM      30.11S
ELIZABETHTON   CLEAR     54  50  87 CALM        N/A
$$

TNZ012-013-036-069-073-074-300500-
CENTRAL EAST TENNESSEE

CITY           SKY/WX    TMP DP  RH WIND       PRES   REMARKS
KNOXVILLE      CLEAR     60  55  83 CALM      30.08F
OAK RIDGE      CLEAR     60  56  86 CALM      30.11S
GATLINBURG     CLEAR     57  54  88 CALM      30.10S
MORRISTOWN     CLEAR     59  54  82 CALM      30.12S
$$

TNZ083-085-099-300500-
SOUTHEAST TENNESSEE

CITY           SKY/WX    TMP DP  RH WIND       PRES   REMARKS
CHATTANOOGA    CLEAR     65  55  70 W5        30.09R
$$

SKY/WX REPORTED AS FAIR MEANS FEW OR NO CLOUDS BELOW
12 THOUSAND FEET.




USA.gov is the U.S. government's official web portal to all federal, state and local government web resources and services.